Location: Anglesey
(53.1800°N, 4.2200°W)
Time: 23:29:57
(UTC+00:00)

Envisat - Pass Details

Date: 14 October 2017
Orbit: 764 x 766 km, 98.2° (Epoch: 12 December)

Event Time Altitude Azimuth Distance (km) Brightness Sun altitude
Exits shadow 20:19:23 27° 135° (SE) 1,451 4.0 -18.2°
Maximum altitude 20:22:01 56° 68° (ENE) 916 3.1 -18.6°
Drops below altitude 10° 20:27:00 10° 352° (N) 2,319 5.7 -19.3°
Sets 20:29:21 0° 348° (NNW) 3,250 6.6 -19.6°
